Погода в Костюковичи

Погода в Костюковичи : погода сейчас, прогноз погоды и архив. Всё, что Вы хотите узнать о погоде в Костюковичи!

Поиск расширенной информации на нашем сайте:

Другие новости

Новости СМИ2

Главная страница сайта

Новости сайта

02.10.2013

Напоминаем, что на нашем новом сайте вы можете получить высокодетализированные прогнозы погоды по пунктам России, СНГ и мира (включающие важные для авиации метеовеличины, такие как направление и скорость ветра, видимость, явления погоды, количество и форма облачности, нижняя и верхняя граница облачности), а также ознакомиться с разнообразными материалами по авиационной метеорологии и подборкой полезных ссылок на эту тему.

Сайт Метеоцентр.Азия посвящён разработке технологий оптимизации авиаметеорологического обслуживания, включая проектирование и перспективное создание нескольких автоматизированных авиаметеорологических систем:
- система выпуска высокодетальных прогностических карт явлений погоды для нижнего воздушного пространства по России и ближнему зарубежью;
- система верификации прогнозов TAF (выпускаемых синоптиками официальных АМСГ РФ и ближнего зарубежья) и AUTOTAF (выпускаемых сайтом Метеоцентр.Азия) - выявление ошибок, онлайн-сопоставление с фактической погодой METAR, автоматическое внесение коррективов в прогнозы при резком отклонении фактической погоды от прогноза, подсчёт оправдываемости прогнозов по элементам и в целом;
- система обработки, анализа и отображения авиаметеорологической информации для применения провайдерами метеорологической информации.

Рекомендуем: церетон

Погода в Костюковичи - сегодня

Время (UTC), дата Ветер
(°,м/с) 
Видим.   Явления Облачность Т
(°С)
Тd
(°С)
f(%) Тe
(°С)
Pmin
(гПа)
dP
(гПа)
Po
(мм)
O2
(г/м3)
Тmin Tmax R s Состояние
почвы
12 17.02.17 210 (ЮЗ) 12000 м    8/0 верхняя 
[Cs]
+1.3 -2.9 74 -1  1015.3  -1.1  746  299           
15 17.02.17 230 (ЮЗ) 12000 м    10/10 420 м 
[St]
+1.2 -1.7 81 +1  1015.6  0.2  746  299           
18 17.02.17 220 (ЮЗ) 4000 м  дымка  10/10 150 м 
[St]
+1.1 +0.4 95 1015.3  -0.3  746  299    +2    17   
21 17.02.17 230 (ЮЗ) 5000 м  дымка  10/10 240 м 
[St]
+1.3 +0.2 92 1015.1  -0.1  746  299           
00 18.02.17 210 (ЮЗ) 4600 м  дымка  10/10 270 м 
[St]
+1 -0.1 92 1015.1  -0.1  746  299           
03 18.02.17 240 (ЮЗ) 4000 м  дымка  10/10 270 м 
[St]
+1 +0 93 +2  1014.6  -0.5  745  299        16   
06 18.02.17 220 (ЮЗ) 1600 м  слаб. дождь{морось}  10/10 150 м 
[St]
+0.7 +0.1 96 1015.1  0.5  746  300  +0.7    0.0  16  равномерный
мокрый или
старый снег
100% 
09 18.02.17 240 (ЮЗ) 3900 м  дымка{дождь, морось}  10/10 240 м 
[St]
+1.9 +0.3 89 +1  1015.3  0.3  746  298           
12 18.02.17 240 (ЮЗ) 5000 м  дымка{дождь, морось}  10/10 240 м 
[St]
+1.9 +0.3 89 1015.6  0.3  746  298           
15 18.02.17 240 (ЮЗ) 13000 м    10/10 930 м 
[Sc]
+2 -0 87 +3  1015.8  0.2  746  298      0.0     
18 18.02.17 280 (З) 35000 м    10/10 330 м 
[St]
+1.9 +0.1 88 1017.3  1.5  747  299    +2.4  0.0  15   
21 18.02.17 280 (З) 3{10}  35000 м    10/10 630 м 
[Sc]
+1.8 -1.2 80 1018.4  748  300           
00 19.02.17 280 (З) 35000 м    10/10 630 м 
[Sc]
+1.2 -2.2 78 +1  1019.2  0.8  749  301           
03 19.02.17 240 (ЮЗ) 35000 м    8/8 2000 м средняя 
[Ac trans]
-0.8 -3 85 -2  1020  0.6  749  303        13   
06 19.02.17 240 (ЮЗ) 21000 м    10/10 330 м 
[St]
-0.8 -2.7 87 -3  1020.3  0.3  749  303  -2.2      13  равномерный
мокрый или
старый снег
100% 
09 19.02.17 220 (ЮЗ) 35000 м    10/10 900 м 
[Sc]
+1.3 -1.9 79 1019.7  -0.4  749  301           
12 19.02.17 230 (ЮЗ) 6-10{11}  30000 м    10/10 630 м 
[Sc]
+2 -1.5 78 -1  1018.5  -1.2  748  299           
15 19.02.17 240 (ЮЗ) 6-11{13}  35000 м    10/10 570 м 
[Sc]
+1.4 -1.8 79 -2  1017.4  -1.1  747  300           
18 19.02.17 230 (ЮЗ) 5{12}  30000 м    10/10 630 м 
[Sc]
+1.5 -1.9 78 -1  1016.5  -0.9  747  299    +2.1    13   
21 19.02.17 240 (ЮЗ) 6-13{12}  30000 м    10/10 600 м 
[Sc]
+1.6 -2 77 -2  1015.8  -0.6  746  299           
00 20.02.17 230 (ЮЗ) 6-11{13}  23000 м    10/10 600 м 
[Sc]
+1.4 -1.9 79 -2  1015.1  -0.7  746  299           
03 20.02.17 220 (ЮЗ) 4{11}  19000 м  в посл. час снег  10/10 420 м 
[St]
+0.7 -1.6 85 -2  1014  -1.2  745  300      0.2  13   
06 20.02.17 220 (ЮЗ) 19000 м  {снег}  10/10 570 м 
[Sc]
+1 -1.9 81 -1  1013.6  -0.3  745  299  +0.4    0.2  13  равномерный
мокрый или
старый снег
100% 
09 20.02.17 200 (Ю) 6-10{10}  16000 м    10/10 720 м 
[Sc]
+1.8 -1.8 77 -1  1011.7  -1.8  743  298           
12 20.02.17 220 (ЮЗ) 5{11}  21000 м    9/9 840 м 
[Sc]
+3.4 -1.6 70 +1  1009.6  -2  742  295           
Время (UTC), дата Ветер
(°,м/с) 
Видим.   Явления Облачность Т
(°С)
Тd
(°С)
f(%) Тe
(°С)
Pmin
(гПа)
dP
(гПа)
Po
(мм)
O2
(г/м3)
Тmin Tmax R s Состояние
почвы

Для получения пояснительной информации подведите курсор к названию столбца.

ПОГОДА в Костюковичи - архив

Всё, что Вы хотите узнать о погоде в Костюковичи - удобно и подробно!

Выберите нужную дату (начиная с 1 января 2015* года) и нажмите кнопку "Найти".
Будут отображены архивные сводки погоды по пункту Костюковичи, начиная с указанной даты.


Отображать данные в формате CSV (для использования в таблицах Excel)


Внимание! Наш архив погоды предназначен исключительно для личного некоммерческого использования в познавательных целях. Если Вам необходимы официальные справки о состоянии погоды (для производственных, юридических, коммерческих и т.п. целей), обращайтесь в органы Росгидромета.

*Примечание: данная дата относится к архиву по метеостанциям СССР (Россия, СНГ, Балтия).
Архив по метеостанциям Зарубежной Европы и Азии (кроме Китая) хранится 10 дней, по другим регионам земного шара (Китай, Африка, Америка, Австралия, Океания) - 1 день.

Костюковичи - район местоположения метеостанции


Название, широта, долгота, высота метеостанции:
Костюковичи 53.3°ш. 32.1°д. 167 м над ур. моря [Беларусь]

Дополнительная информация

В oтличие oт бoльшинства пoгoдных сайтoв мы публикуем пoдрoбную метеoинфoрмацию в детальнoм прoфессиoнальнoм фoрмате.

Характеристики температуры и влажнoсти вoздуха измеряются на высoте 2 м в тени вдали oт зданий и деревьев.
Скoрoсть ветра измеряется на высoте 10 м (на урoвне рoста челoвека скoрoсть ветра ниже в 1.5-2 раза). Если метеoстанция нахoдится в гoрoде или в лесу, тo скoрoсть ветра занижена на 2-4 м/с пo сравнению с oткрытым местoм. Скoрoсть ветра над акватoриями крупных рек и oзёр, а также на вершинах хoлмoв на 2-5 м/с выше, чем в oбычных услoвиях.
Атмoсфернoе давление в разных тoчках местнoсти мoжет значительнo oтличаться oт давления на метеoстанции, в зависимoсти oт услoвий рельефа (при пoдъёме на 10 м давление пoнижается примернo на 1 мм рт.ст.).